Tracking 25405 objects as of 27-Jan-2022
HD Live streaming from Space Station
objects crossing your sky now

STARLINK-2450

Track STARLINK-2450 now!
10-day predictions
STARLINK-2450 is classified as:


NORAD ID: 48113
Int'l Code: 2021-027X
Perigee: 553.5 km
Apogee: 555.2 km
Inclination: 53.1 °
Period: 95.6 minutes
Semi major axis: 6925 km
RCS: Unknown
Launch date: April 7, 2021
Source: United States (US)
Launch site: AIR FORCE EASTERN TEST RANGE (AFETR)
aabbcc
Your satellite tracking list
Your tracking list is empty




NASA's NSSDC Master Catalog

Two Line Element Set (TLE):
1 48113U 21027X   22026.53421056  .00001054  00000-0  89630-4 0  9997
2 48113  53.0559  79.5517 0001222  79.0451 281.0675 15.06408229 45840
Source of the keplerian elements: AFSPC